Temp
85 87 88 89 91 90 90 90 91 91 87 84 85 85 85 85 85 87 89 87 90 93 94 91 91 90 90 90 90 90 89 91 92
84 85 87 89 91 92 90 90 89 89 89 86 87 88 86 85 86 86 89 88 88 92 91 94 90 89 88 90 90 90 89 91 89
85 86 86 89 90 90 91 92 91 90 90 87 88 89 88 88 87 87 87 87 85 88 88 89 88 88 90 89 90 89 88 89 90
86 85 86 87 88 89 91 91 89 87 88 90 89 90 89 88 88 89 88 88 87 87 89 88 87 87 88 88 89 89 87 88 89
84 85 86 87 88 88 88 87 85 82 86 89 90 91 89 89 88 88 89 88 89 88 87 88 87 87 88 87 88 88 87 88 91
83 83 85 85 85 85 85 86 83 85 85 86 90 89 89 89 88 88 87 88 88 89 87 86 88 87 86 87 88 87 87 88 89
82 82 83 83 83 83 84 84 77 78 79 84 82 80 87 86 85 87 88 88 87 88 88 87 87 85 87 87 88 88 89 88 86
79 80 81 80 82 83 82 82 83 81 80 77 79 78 79 83 84 86 86 87 86 87 87 87 87 86 86 87 87 90 86 87 87
77 78 78 80 78 78 79 81 82 82 81 78 79 74 76 83 83 83 83 83 83 85 84 85 85 85 85 85 88 65 67 73 86
77 78 78 79 74 73 73 77 76 76 77 79 76 72 75 80 80 77 78 82 80 83 82 85 84 83 84 84 83 65 65 69 84
77 78 75 78 78 76 77 77 76 75 76 73 74 73 76 77 76 76 73 78 79 76 78 78 77 78 79 78 74 61 63 69 82
79 75 71 72 77 77 77 78 77 75 70 68 70 73 74 75 76 75 74 73 73 73 73 72 71 73 74 74 71 59 60 67 81
70 73 75 76 76 76 73 71 73 71 69 69 67 68 71 72 72 70 69 71 70 69 69 66 66 66 67 62 67 58 57 66 77
67 71 72 74 69 69 72 69 67 66 65 64 67 68 67 69 70 70 69 69 67 65 64 61 60 60 61 60 58 61 56 58 71
67 71 73 72 66 67 73 70 66 65 66 68 66 64 64 64 66 67 64 62 61 60 60 58 58 58 58 58 57 55 54 56 60
71 70 71 70 65 65 69 72 68 65 65 66 66 65 61 62 63 63 63 61 60 60 60 59 58 60 60 59 58 57 54 54 56
67 67 64 66 64 65 64 64 69 68 66 65 64 62 60 62 62 62 63 62 62 60 60 60 61 62 62 63 61 61 61 59 60
72 68 64 67 64 63 63 64 66 68 68 66 66 65 66 65 67 66 62 59 63 69 64 61 72 73 71 67 62 57 51 62 73
69 68 67 66 66 66 65 66 67 68 70 69 70 69 70 69 67 68 69 69 65 47 47 45 45 46 63 63 50 45 44 44 46
65 70 68 67 67 70 69 69 70 70 70 71 72 72 73 73 73 74 71 72 69 65 55 47 45 44 44 46 45 44 44 43 45
MSLP
1006.67 1006.76 1007.32 1007.64 1008.03 1008.78 1009.41 1010.23 1010.85 1011.67 1012.47 1013.31 1013.95 1014.45 1014.84 1015.27 1015.69 1016.02 1015.78 1015.96 1015.51 1015.24 1015.14 1015.85 1016.06 1016.47 1016.44 1016.53 1016.58 1016.72 1016.92 1016.87 1016.87
1006.36 1006.73 1007.11 1007.35 1007.74 1008.23 1008.96 1009.51 1010.37 1011.13 1011.80 1012.64 1013.15 1013.61 1014.29 1014.75 1015.19 1015.47 1015.20 1015.49 1015.82 1015.54 1015.67 1015.44 1016.10 1016.29 1016.48 1016.25 1016.34 1016.59 1016.92 1016.86 1016.92
1006.15 1006.60 1006.98 1007.05 1007.32 1007.73 1008.27 1008.93 1009.83 1010.80 1011.32 1011.82 1012.37 1012.94 1013.55 1014.01 1014.43 1014.87 1015.19 1015.53 1015.71 1015.57 1015.84 1016.01 1016.08 1016.16 1016.16 1016.41 1016.33 1016.50 1016.97 1016.84 1016.70
1006.27 1006.59 1006.75 1007.06 1007.28 1007.62 1007.93 1008.69 1009.50 1010.39 1010.95 1011.20 1011.79 1012.23 1012.74 1013.29 1013.72 1014.10 1014.67 1014.93 1015.29 1015.61 1015.75 1016.08 1016.20 1016.19 1016.00 1016.33 1016.14 1016.52 1016.72 1016.61 1016.63
1006.56 1006.84 1006.90 1007.04 1007.17 1007.54 1007.88 1008.48 1009.53 1010.34 1010.44 1010.78 1011.05 1011.42 1012.23 1012.75 1013.29 1013.64 1013.97 1014.43 1014.74 1015.26 1015.60 1015.77 1016.10 1016.01 1015.80 1016.07 1016.05 1016.21 1016.26 1016.36 1016.03
1006.73 1007.01 1006.94 1007.03 1007.27 1007.50 1007.91 1008.33 1009.02 1009.69 1010.25 1010.57 1010.70 1011.08 1011.61 1012.22 1012.82 1013.26 1013.56 1013.91 1014.36 1014.74 1015.19 1015.54 1015.71 1015.73 1015.94 1015.88 1015.97 1016.34 1016.31 1016.35 1016.31
1006.91 1007.03 1007.13 1007.27 1007.47 1007.59 1008.01 1008.46 1009.23 1009.72 1010.38 1010.60 1011.12 1011.23 1011.45 1011.87 1012.44 1012.86 1013.17 1013.50 1013.97 1014.29 1014.68 1014.97 1015.15 1015.62 1015.74 1015.80 1015.96 1016.10 1016.09 1016.13 1016.40
1007.13 1007.20 1007.38 1007.61 1007.61 1007.78 1008.17 1008.51 1008.81 1009.42 1010.10 1010.74 1011.02 1011.43 1011.54 1011.77 1012.12 1012.57 1012.98 1013.21 1013.68 1013.90 1014.27 1014.60 1014.89 1015.18 1015.40 1015.58 1015.87 1015.86 1016.02 1016.15 1016.15
1007.23 1007.42 1007.78 1007.86 1008.32 1008.43 1008.52 1008.56 1008.75 1009.05 1009.55 1010.39 1010.79 1011.13 1011.40 1011.58 1011.92 1012.41 1012.70 1013.08 1013.47 1013.58 1014.19 1014.47 1014.70 1014.82 1015.05 1015.33 1015.55 1016.38 1016.72 1016.53 1016.02
1007.44 1007.71 1007.92 1008.06 1008.79 1009.13 1009.34 1009.06 1009.30 1009.57 1009.87 1010.30 1010.84 1011.18 1011.50 1011.99 1012.23 1012.57 1012.72 1013.02 1013.46 1013.44 1013.87 1014.12 1014.31 1014.74 1014.90 1015.08 1015.72 1016.85 1016.89 1016.72 1016.25
1007.74 1008.05 1008.73 1008.44 1008.78 1009.17 1009.21 1009.43 1009.79 1010.16 1010.25 1010.74 1010.92 1011.29 1011.83 1012.17 1012.33 1012.64 1012.96 1012.81 1013.43 1013.95 1014.18 1014.33 1014.74 1014.99 1015.28 1015.69 1016.61 1017.16 1017.07 1016.82 1016.45
1008.19 1009.07 1009.74 1009.62 1009.51 1009.64 1009.64 1009.62 1009.99 1010.43 1011.02 1011.24 1011.58 1011.63 1011.41 1012.27 1012.45 1012.81 1013.19 1013.46 1013.70 1014.18 1014.61 1014.99 1015.35 1015.61 1015.80 1016.25 1017.02 1017.36 1017.25 1017.06 1016.52
1009.64 1009.94 1010.06 1010.06 1010.21 1010.29 1010.44 1010.58 1010.46 1010.87 1011.27 1011.62 1011.96 1011.91 1012.28 1012.48 1012.89 1013.18 1013.44 1013.82 1014.32 1014.72 1015.15 1015.68 1016.05 1016.48 1016.94 1017.29 1017.44 1017.83 1017.59 1017.35 1017.11
1010.53 1010.55 1010.74 1010.76 1011.14 1011.21 1011.13 1011.44 1011.28 1011.86 1012.17 1012.34 1012.37 1012.54 1012.59 1012.59 1012.96 1013.30 1013.88 1014.19 1014.84 1015.23 1015.71 1016.21 1016.71 1017.30 1017.61 1017.86 1018.07 1018.03 1017.84 1017.51 1017.42
1010.84 1010.72 1011.06 1011.45 1011.56 1011.89 1011.74 1012.14 1011.77 1012.63 1012.91 1013.20 1012.98 1013.34 1013.18 1012.80 1013.18 1013.49 1014.05 1014.69 1015.22 1015.75 1016.18 1016.65 1017.17 1017.50 1017.85 1018.15 1018.27 1018.33 1017.99 1017.90 1017.81
1010.70 1010.99 1011.31 1011.80 1012.02 1012.51 1012.66 1012.47 1012.86 1012.97 1013.42 1013.63 1013.64 1013.94 1013.75 1013.86 1014.00 1014.09 1014.61 1015.20 1015.72 1016.49 1016.87 1017.25 1017.50 1017.87 1018.16 1018.35 1018.81 1018.83 1018.69 1018.58 1018.74
1010.96 1011.34 1011.27 1011.73 1011.97 1013.04 1013.28 1013.27 1013.29 1013.26 1013.52 1013.81 1014.06 1014.29 1014.55 1014.49 1014.60 1014.87 1015.57 1015.73 1016.25 1016.71 1017.18 1017.75 1017.87 1017.97 1017.94 1018.12 1018.67 1018.98 1019.31 1019.38 1019.45
1011.02 1011.50 1011.63 1012.55 1013.02 1013.15 1013.44 1013.34 1013.60 1013.86 1013.99 1014.03 1014.08 1014.66 1014.88 1015.18 1015.50 1015.75 1015.99 1016.90 1017.13 1016.84 1017.92 1018.21 1017.67 1017.46 1017.56 1018.20 1018.96 1019.57 1019.59 1018.94 1018.83
1011.38 1011.71 1012.35 1012.84 1013.22 1013.38 1013.70 1013.67 1013.76 1013.91 1014.03 1014.15 1014.29 1014.59 1014.86 1015.10 1015.40 1015.81 1016.23 1016.73 1017.44 1018.13 1018.43 1018.55 1018.55 1018.51 1018.32 1019.29 1019.79 1020.15 1020.15 1020.03 1019.67
1011.39 1011.75 1012.27 1012.59 1012.87 1013.15 1013.40 1013.56 1013.80 1014.05 1014.15 1014.32 1014.42 1014.49 1014.57 1014.90 1014.98 1015.18 1015.74 1016.17 1016.56 1017.35 1018.80 1018.97 1019.13 1019.35 1019.55 1019.84 1020.35 1020.62 1020.58 1020.45 1020.37
Wind_Speed
2 10 14 16 17 15 17 17 17 16 17 15 16 15 14 12 11 7 8 9 8 7 4 8 5 7 6 6 5 5 3 5 5
4 6 10 16 17 17 17 17 18 18 17 16 16 16 13 13 11 10 7 6 6 6 4 4 7 6 7 6 6 6 4 4 4
4 3 5 10 13 17 16 17 16 18 18 17 17 15 14 12 12 11 9 8 8 6 3 6 4 8 6 6 6 6 6 6 6
2 4 6 6 8 12 16 15 12 16 16 17 16 15 14 13 12 13 11 9 8 8 6 5 7 6 5 6 5 5 6 5 3
4 6 7 7 8 9 14 16 14 13 12 14 15 15 13 13 12 12 11 10 9 9 8 7 7 7 7 7 5 4 6 6 4
5 5 7 6 6 8 11 14 9 13 13 13 14 13 14 13 12 13 12 11 10 10 9 9 7 6 6 5 4 5 6 7 5
6 7 6 6 5 6 8 9 8 8 9 11 9 7 13 12 12 12 12 11 9 9 9 9 8 7 7 6 6 7 7 7 6
5 7 6 4 5 4 6 8 10 11 10 10 11 9 8 12 12 11 11 11 10 9 9 9 9 8 8 7 7 7 4 6 5
4 3 4 3 2 5 5 7 9 10 11 11 12 7 8 9 10 10 11 10 10 11 9 9 9 9 8 8 8 7 4 6 6
3 3 3 2 1 1 4 5 5 9 10 11 11 8 6 9 9 10 9 8 6 9 8 9 10 10 9 8 5 1 4 6 6
3 2 4 2 4 2 4 5 7 6 9 7 7 7 10 10 9 8 5 5 7 5 5 5 5 6 6 5 4 1 3 7 4
1 6 4 6 6 6 4 1 6 8 7 5 3 6 9 7 6 7 8 7 6 4 5 5 4 3 6 6 6 6 5 7 4
6 5 6 8 8 8 7 7 6 7 6 5 7 6 5 8 8 7 5 7 6 4 6 6 6 7 6 7 5 7 2 3 1
5 6 7 8 8 8 9 10 9 11 9 8 7 5 1 6 7 8 6 5 4 5 7 7 6 7 6 6 5 4 3 2 3
7 9 8 7 8 6 6 7 10 8 8 5 6 6 7 7 5 5 6 9 7 7 7 8 6 6 5 4 6 9 10 7 8
10 9 7 7 8 6 3 6 6 7 5 6 8 7 7 7 8 8 8 9 8 6 6 5 4 4 4 5 3 5 12 12 10
8 7 9 9 9 4 5 4 6 9 8 8 8 9 7 7 8 8 7 6 6 6 6 5 3 3 5 6 4 4 4 5 7
8 8 8 7 3 2 4 5 8 9 8 8 10 9 9 8 7 9 9 8 6 6 8 6 3 6 6 6 5 2 3 4 5
6 9 9 7 7 7 6 8 8 8 8 8 9 10 8 8 8 8 7 8 10 15 12 11 12 12 9 10 11 7 8 8 9
9 9 9 9 7 9 8 8 8 7 6 9 7 8 8 7 7 9 8 8 7 9 7 14 13 13 13 14 9 6 6 6 4
Wind_Direction
199 221 211 220 216 211 222 210 197 199 188 194 194 198 204 206 211 213 215 211 283 223 208 188 151 203 202 198 199 203 202 224 258
208 202 222 223 224 214 206 207 200 202 199 198 197 199 198 206 207 221 231 243 208 222 241 198 196 210 215 207 223 222 191 225 231
200 229 241 235 226 227 207 206 203 205 203 197 201 205 198 202 206 209 215 229 230 245 294 274 213 213 216 215 231 240 221 209 211
270 285 276 250 238 225 217 216 202 204 212 205 201 200 203 205 206 206 208 220 217 227 226 228 249 243 238 228 216 217 222 249 271
292 306 303 281 248 219 212 213 194 207 205 211 211 201 201 204 205 204 206 214 220 204 225 224 226 234 238 247 248 216 211 236 288
281 298 292 292 247 225 217 214 205 202 205 214 217 205 196 200 205 202 209 211 215 221 207 216 222 231 243 242 247 239 225 250 249
287 298 301 305 263 222 214 221 181 205 213 207 207 203 201 200 205 211 215 212 218 220 221 223 214 207 227 240 246 247 233 217 245
276 293 302 299 282 227 210 209 214 199 193 187 193 191 211 206 205 208 216 215 212 219 221 221 227 221 220 224 227 234 240 250 257
269 297 268 277 279 305 267 223 218 212 194 181 180 174 198 199 200 202 210 219 208 220 215 221 234 232 228 225 236 81 285 285 261
261 277 307 275 150 227 251 239 187 212 197 179 173 168 150 192 185 183 193 197 226 229 218 226 228 236 236 227 198 130 261 260 256
228 259 11 135 95 101 153 152 155 161 151 157 151 148 170 169 160 173 158 167 194 199 219 226 215 211 202 175 97 6 279 241 161
36 71 81 72 74 51 35 158 179 159 137 116 147 158 177 167 168 175 162 156 165 140 163 156 145 157 150 155 129 29 345 287 164
105 118 95 78 61 65 48 48 65 93 101 150 167 177 168 167 168 161 148 145 134 109 113 110 105 90 86 46 87 19 346 347 16
99 102 94 98 71 57 74 91 81 82 78 59 60 77 37 179 176 170 162 128 112 111 114 100 88 86 72 68 37 28 327 139 147
133 120 99 79 79 49 95 98 93 86 84 99 75 72 64 56 88 122 106 105 99 94 102 99 96 104 89 70 50 24 33 73 80
142 125 99 70 74 68 56 119 102 108 103 107 101 91 74 55 70 80 96 113 110 104 94 90 98 93 94 103 105 77 61 62 81
116 112 100 54 30 47 101 91 110 99 90 97 97 88 75 83 90 93 92 84 94 102 108 112 116 159 132 114 99 104 126 115 104
115 113 81 120 115 90 120 115 120 118 131 118 117 105 107 102 100 94 81 59 30 86 52 16 116 121 119 111 95 53 6 79 132
138 127 137 138 143 143 132 128 121 122 133 132 127 127 125 120 120 119 129 130 108 64 65 51 41 33 72 74 73 61 60 60 66
134 133 147 155 167 136 134 130 128 132 137 140 140 125 116 120 138 131 128 133 124 114 81 75 63 64 64 70 94 70 75 98 111